BREEZE-M DEB, 38581

Orbit data source: Space-Track

BREEZE-M DEB, 38581 is space debris in HEO originally from a launch on Fri, 14 Mar 2008 UTC launched from the Tyuratam Missile And Space Complex (TTMTR). Debris objects in space refer to the collection of defunct objects orbiting the Earth. Examples of debris include non-operational satellites, rocket bodies, and fragments generated from explosions, collisions, or faulty payload assembly.

Loading next visibility...
Identifier
38581, 2008-011AC
Orbit
HEO
Country
Flag of CISCIS
Related business
Manufacturer
Unknown
Mission
Spacecraft
Bus & Motor
Unknown
Mass
Unknown
Launch date (UTC)
2008-03-14 (18 years ago)
Launch vehicle
Unknown
Launch site
Tyuratam Missile And Space Complex (TTMTR)
Object type
Payload
Rocket body
Debris
Shape & HBR
Unknown shape, 0.1 m
Radar Cross Section
Medium (>0.1 m² and <1 m²)

Expand to show TLE details & history
Last TLE update: 3 days ago

TLE from 3 days ago
0 BREEZE-M DEB
1 38581U 08011AC  26171.19788551  .00006200  00000-0  82762-2 0  9991
2 38581  49.1632 176.2076 5311327 276.3559  28.5107  4.92478522 32854
Epoch: 2026-06-20T04:44Z
TLE epoch observation values (Epoch: 2026-06-20T04:44:57.308Z)
Latitude
-0.00011°
Longitude
-163.44668°
Altitude
3,522.749 km
Speed
7.295 km/s
True Right ascension
11h 44m 49s
True Declination
0° 00' 00"
Sunlit
Object was in daylight at epoch
Visualization orbit readout
Latitude
Unknown
Longitude
Unknown
Altitude
Unknown
Speed
Unknown
Apparent Right ascension
Unknown
Apparent Declination
Unknown
Sunlit
N/A
Visualization observer readout
Local Sidereal Time
15:37:04
Azimuth
Unknown
Elevation
Unknown
Doppler factor
Unknown
Orbital elements
Apogee altitude
15,966.722 km
Perigee altitude
464.362 km
Semi-major axis
14,593.679 km
Eccentricity
0.53113
Inclination
49.1632°
RAAN
176.2076°
Arg. of periapsis
276.3559°
True anomaly
83.69622°
Mean anomaly
28.5107°
Eccentric anomaly
52.72695°
Mean motion
1.23111 °/min
Orbital period
292.42 mins
BSTAR
0.0082762
Loading maneuver chart data...
Computing Atmospheric mass density...
Loading historical data...
Loading historical data...
Loading historical data...
Loading historical data...
Loading historical data...
Loading historical data...
Loading historical data...

Documentation

Showing up to 5 results
|